Flag for Canada Weather past 2 weeks in Yellowknife, Northwest Territories, Canada

Now
50 °F

Clear.


Feels Like: 46 °F
Forecast: 45 / 62 °F
Wind: 9 mph from Southeast

Location: Yellowknife

Current Time: Aug 23, 2014 at 3:36:08 AM

Latest Report: Aug 23, 2014 at 3:00 AM


Visibility: 15 mi

Pressure: 30.32 "Hg

Humidity: 88%

Dew point: 46 °F

Location of YellowknifeLocation

Historic Weather in Yellowknife — Graph

°F

Yellowknife temperature yesterday

Maximum temperature yesterday: 61 °F (at 3:00 PM)
Minimum temperature yesterday: 43 °F (at 4:46 AM)
Average temperature yesterday: 51 °F

Past Weeks' High & Low Weather Summary

 TemperatureHumidityPressure
High79 °F (Aug 13, 1:00 PM)100% (Aug 22, 4:46 AM)30.36 "Hg (Aug 22, 4:46 AM)
Low39 °F (Aug 20, 3:00 AM)30% (Aug 11, 4:00 PM)29.54 "Hg (Aug 16, 7:00 PM)
Average57 °F69%29.93 "Hg
* Reported Aug 8 2:00 AM — Aug 23 2:00 AM, Yellowknife, Weather by CustomWeather, © 2014

Note: Actual official high and low records may vary slightly from our data, if they occured in-between our weather recording intervals... More about our weather records

Advertising

Yellowknife weather history for previous 24 hours

 ConditionsComfort  
Time TempWeatherWind HumidityBarometerVisibility
2:00 AM
Aug 23
48 °FClear.8 mph82%30.33 "Hg15 mi
1:00 AM48 °FClear.7 mph71%30.34 "Hg15 mi
12:00 AM48 °FPassing clouds.7 mph71%30.34 "Hg15 mi
11:00 PM
Aug 22
48 °FPassing clouds.6 mph87%30.35 "Hg15 mi
10:00 PM50 °FPassing clouds.7 mph76%30.34 "Hg15 mi
9:00 PM54 °FPassing clouds.7 mph67%30.34 "Hg15 mi
8:00 PM57 °FPassing clouds.8 mph59%30.35 "Hg15 mi
7:00 PM59 °FPassing clouds.10 mph48%30.35 "Hg15 mi
6:00 PM59 °FPassing clouds.9 mph51%30.35 "Hg15 mi
5:00 PM61 °FScattered clouds.8 mph59%30.35 "Hg15 mi
4:00 PM61 °FScattered clouds.5 mph55%30.35 "Hg15 mi
3:00 PM61 °FScattered clouds.6 mph59%30.35 "Hg10 mi
2:00 PM59 °FScattered clouds.3 mph59%30.36 "Hg10 mi
1:00 PM59 °FPassing clouds.3 mph59%30.35 "Hg10 mi
12:00 PM57 °FPassing clouds.2 mph63%30.36 "Hg10 mi
11:00 AM55 °FPassing clouds.8 mph72%30.36 "Hg10 mi
10:00 AM54 °FPassing clouds.3 mph72%30.35 "Hg12 mi
9:00 AM50 °FPassing clouds.2 mph76%30.35 "Hg15 mi
8:00 AM46 °FPassing clouds.5 mph87%30.34 "Hg15 mi
7:00 AM43 °FLight fog.5 mph100%30.35 "Hg15 mi
6:00 AM43 °FLight fog.5 mph100%30.34 "Hg15 mi
5:47 AM43 °FFog.3 mph100%30.34 "Hg1 mi
5:00 AM43 °FFog.3 mph100%30.34 "Hg3 mi
4:46 AM43 °FQuite cool.3 mph100%30.33 "Hg4 mi
4:00 AM45 °FPassing clouds.No wind93%30.33 "Hg15 mi
3:00 AM45 °FPassing clouds.6 mph87%30.33 "Hg15 mi
Weather by CustomWeather, © 2014

See weather overviewHow to use our weather pages